Flag for Canada Weather past 2 weeks in St. John's, Newfoundland and Labrador, Canada

Now
9 °F

Passing clouds.


Feels Like: -10 °F
Forecast: 10 / 24 °F
Wind: 18 mph from Northwest

Location: St. John's

Current Time: Mar 7, 2015 at 1:12:41 AM

Latest Report: Mar 7, 2015 at 12:30 AM


Visibility: 15 mi

Pressure: 30.20 "Hg

Humidity: 61%

Dew point: -2 °F

Location of St. John'sLocation

Historic Weather in St. John's — Graph

°F

St. John's temperature yesterday

Maximum temperature yesterday: 14 °F (at 12:30 AM)
Minimum temperature yesterday: 9 °F (at 10:30 PM)
Average temperature yesterday: 11 °F

Past Weeks' High & Low Weather Summary

 TemperatureHumidityPressure
High45 °F (Feb 20, 8:30 AM)100% (Feb 19, 11:30 PM)30.55 "Hg (Feb 19, 11:30 PM)
Low9 °F (Feb 25, 12:30 AM)52% (Feb 28, 9:30 AM)28.77 "Hg (Mar 3, 4:30 AM)
Average23 °F78%29.87 "Hg
* Reported Feb 19 11:30 PM — Mar 6 11:30 PM, St. John's, Weather by CustomWeather, © 2015

Note: Actual official high and low records may vary slightly from our data, if they occured in-between our weather recording intervals... More about our weather records

Advertising

St. John's weather history for previous 24 hours

 ConditionsComfort  
Time TempWeatherWind HumidityBarometerVisibility
11:30 PM
Fri, Mar 6
9 °FClear.9 mph61%30.19 "Hg15 mi
10:30 PM9 °FPassing clouds.17 mph66%30.17 "Hg15 mi
9:30 PM10 °FPassing clouds.20 mph61%30.15 "Hg15 mi
8:30 PM10 °FPassing clouds.24 mph61%30.11 "Hg15 mi
7:30 PM10 °FPassing clouds.22 mph67%30.09 "Hg15 mi
6:30 PM10 °FPassing clouds.21 mph61%30.06 "Hg15 mi
5:30 PM12 °FPassing clouds.24 mph52%30.03 "Hg15 mi
4:30 PM12 °FPassing clouds.23 mph57%30.01 "Hg15 mi
3:30 PM14 °FPassing clouds.22 mph52%29.98 "Hg15 mi
2:30 PM14 °FPassing clouds.25 mph52%29.95 "Hg15 mi
1:30 PM12 °FPassing clouds.17 mph57%29.94 "Hg15 mi
12:30 PM12 °FPassing clouds.20 mph62%29.93 "Hg15 mi
11:30 AM12 °FPassing clouds.21 mph62%29.91 "Hg15 mi
10:30 AM10 °FBroken clouds.18 mph67%29.90 "Hg15 mi
9:30 AM10 °FBroken clouds.23 mph61%29.90 "Hg15 mi
8:30 AM10 °FBroken clouds.17 mph61%29.88 "Hg15 mi
7:30 AM10 °FPartly sunny.17 mph67%29.84 "Hg15 mi
6:30 AM10 °FMostly cloudy.14 mph72%29.82 "Hg15 mi
5:30 AM10 °FMostly cloudy.17 mph67%29.79 "Hg15 mi
4:30 AM12 °FMostly cloudy.21 mph67%29.76 "Hg15 mi
3:30 AM12 °FPartly cloudy.20 mph62%29.76 "Hg15 mi
2:30 AM12 °FPartly cloudy.23 mph67%29.74 "Hg15 mi
1:30 AM14 °FPassing clouds.23 mph62%29.75 "Hg15 mi
Weather by CustomWeather, © 2015

See weather overviewHow to use our weather pages